NOAA 16 DEB

Satellite information

Favourite Embed

Satellite Type and Status

DEBRISIN ORBIT

Key statistics

Satellite NOAA 16 DEB at a glance.

Uptime

9053

Days in orbit

Revolutions

≈ 14.2

Per day

Orbit

SSO

Sun Synchronous Orbit

Inclination

98.7

Latest

Satellite identification and parameters

Extended collection of information and parameters for NOAA 16 DEB.

Object identification

Identified? True

Debris? True

Object name: NOAA 16 DEB

International designator: 2000-055EN

Object number (NORAD): 41233

Object ID (CCSDS): 41233

Country: UNITED STATES OF AMERICA (US)

Current information (Y/N): Y

RCS size: SMALL

Orbital parameters

Period: 101.49 minutes

Inclination: 98.7074 deg

SMA: 7207.371 km

Apoapsis: 859.166 km

Periapsis: 799.307 km

RAAN: 224.2038 deg

Eccentricy: 0.0041526

Argument of periapsis: 65.3943 deg

Mean anomaly: 295.1551 deg

Mean motion: 14.18852994 rev/day

Mean motion (dot): 0.00002443 rev/day2

B* drag term: 0.0011841 1/REarth

Two-line elements (TLE)

Creation date: July 4, 2025, 10:56 p.m.

Reference frame: TEME

Reference center: EARTH

Epoch: July 4, 2025, 8:04 a.m. UTC

TLE line 0: 0 NOAA 16 DEB

TLE line 1: 1 41233U 00055EN 25185.33621423 .00002443 00000-0 11841-2 0 9998

TLE line 2: 2 41233 98.7074 224.2038 0041526 65.3943 295.1551 14.18852994491787

Live tracking on map

Real-time ground track for satellite NOAA 16 DEB.

In-orbit conjunctions

A list of the most updated potential collisions computed for object NOAA 16 DEB.

Target Orbit TCA Probability of collision Miss distance Type
CZ-6A DEB SSO 2024-11-11 00:34:50 0.0002629512 256.0 (m) DEBRIS
QUAKESAT SSO 2024-10-20 12:10:28 0.0001472201 641.0 (m) PAYLOAD

Associated space launch

The NOAA K, L and M POES satellites begin the fifth generation of improved environmental monitoring in support of NOAA missions. The instrument payload has significant improvements and additions/deletions. The instrument changes have effected the spacecraft subsystems and data formats.

NOAA 16 DEB was lifted into orbit during the mission ‘Titan II SLV | NOAA 16’, on board a Titan II SLV space rocket.

The launch took place on Sept. 21, 2000, 10:22 a.m. from Space Launch Complex 4W.

For more information about the launch, click the button.

Launch to space Titan II SLV | NOAA 16
Titan II SLV | NOAA 16

Agency: N/A

Status: Launch Successful

Launch date: Sept. 21, 2000, 10:22 a.m. UTC

Rocket: Titan II SLV

Launch pad: Space Launch Complex 4W

Location: Vandenberg SFB, CA, USA

...

Latest news about this satellite

There are no fresh news available about this satellite. Check back as we update our databases every day.


Newsletter sign-up

Weekly statistics, charts and insights to help you stay on top of the space industry.